Time,TemperatureF,DewpointF,PressureIn,WindDirection,WindDirectionDegrees,WindSpeedMPH,WindSpeedGustMPH,Humidity,HourlyPrecipIn,Conditions,Clouds,dailyrainin,SoftwareType,DateUTC
2013-07-05 00:02:00,70.0,48.3,29.99,SSE,152,0.0,0.0,46,0.00,,SKC,0.00,VWS V14.01,2013-07-05 05:02:00,
2013-07-05 00:07:00,69.8,48.1,29.99,SSW,194,0.0,0.0,46,0.00,,SKC,0.00,VWS V14.01,2013-07-05 05:07:00,
2013-07-05 00:13:00,69.6,48.5,29.99,NE,50,4.8,4.8,47,0.00,,SKC,0.00,VWS V14.01,2013-07-05 05:13:00,
2013-07-05 00:18:00,69.6,48.5,29.99,South,185,0.0,4.8,47,0.00,,SKC,0.00,VWS V14.01,2013-07-05 05:18:00,
2013-07-05 00:23:00,69.4,48.3,29.99,SSE,166,0.0,0.0,47,0.00,,SKC,0.00,VWS V14.01,2013-07-05 05:23:00,
2013-07-05 00:28:00,69.4,48.3,29.99,SSW,195,0.0,7.2,47,0.00,,SKC,0.00,VWS V14.01,2013-07-05 05:28:00,
2013-07-05 00:33:00,69.3,48.2,29.99,SSW,192,0.0,4.0,47,0.00,,SKC,0.00,VWS V14.01,2013-07-05 05:33:00,
2013-07-05 00:38:00,69.1,48.6,29.99,SSW,195,4.0,4.0,48,0.00,,SKC,0.00,VWS V14.01,2013-07-05 05:38:00,
2013-07-05 00:43:00,68.9,48.4,29.99,SSE,160,4.0,8.1,48,0.00,,SKC,0.00,VWS V14.01,2013-07-05 05:43:00,
2013-07-05 00:48:00,68.9,48.4,29.99,South,180,0.0,0.0,48,0.00,,SKC,0.00,VWS V14.01,2013-07-05 05:48:00,
2013-07-05 00:53:00,68.7,48.3,29.99,SSW,213,0.0,0.0,48,0.00,,SKC,0.00,VWS V14.01,2013-07-05 05:53:00,
2013-07-05 00:58:00,68.5,48.6,29.99,SE,136,0.0,0.0,49,0.00,,SKC,0.00,VWS V14.01,2013-07-05 05:58:00,
2013-07-05 01:03:00,68.4,48.5,29.99,South,186,0.0,4.0,49,0.00,,SKC,0.00,VWS V14.01,2013-07-05 06:03:00,
2013-07-05 01:09:00,68.4,49.0,29.99,WSW,245,0.0,0.0,50,0.00,,SKC,0.00,VWS V14.01,2013-07-05 06:09:00,
2013-07-05 01:14:00,68.2,48.8,29.99,South,169,4.0,5.6,50,0.00,,SKC,0.00,VWS V14.01,2013-07-05 06:14:00,
2013-07-05 01:19:00,68.2,48.8,29.99,SSW,202,0.0,6.4,50,0.00,,SKC,0.00,VWS V14.01,2013-07-05 06:19:00,
2013-07-05 01:24:00,67.8,49.0,29.99,SW,214,0.0,0.0,51,0.00,,SKC,0.00,VWS V14.01,2013-07-05 06:24:00,
2013-07-05 01:29:00,67.8,49.6,29.99,South,183,4.0,4.0,52,0.00,,SKC,0.00,VWS V14.01,2013-07-05 06:29:00,
2013-07-05 01:34:00,67.6,49.4,29.99,ESE,108,0.0,0.0,52,0.00,,SKC,0.00,VWS V14.01,2013-07-05 06:34:00,
2013-07-05 01:39:00,67.6,49.4,29.99,SW,218,0.0,5.6,52,0.00,,SKC,0.00,VWS V14.01,2013-07-05 06:39:00,
2013-07-05 01:45:00,67.5,49.8,29.99,SSW,208,0.0,7.2,53,0.00,,SKC,0.00,VWS V14.01,2013-07-05 06:45:00,
2013-07-05 01:50:00,67.5,49.8,29.99,South,189,0.0,0.0,53,0.00,,SKC,0.00,VWS V14.01,2013-07-05 06:50:00,
2013-07-05 01:55:00,67.3,49.6,29.99,SSW,192,0.0,4.8,53,0.00,,SKC,0.00,VWS V14.01,2013-07-05 06:55:00,
2013-07-05 02:00:00,67.3,50.1,29.99,South,169,5.6,5.6,54,0.00,,SKC,0.00,VWS V14.01,2013-07-05 07:00:00,
2013-07-05 02:05:00,67.1,49.9,29.99,South,182,0.0,4.8,54,0.00,,SKC,0.00,VWS V14.01,2013-07-05 07:05:00,
2013-07-05 02:11:00,66.9,49.8,29.99,ESE,116,0.0,4.0,54,0.00,,SKC,0.00,VWS V14.01,2013-07-05 07:11:00,
2013-07-05 02:16:00,67.1,50.4,29.99,South,179,0.0,4.0,55,0.00,,SKC,0.00,VWS V14.01,2013-07-05 07:16:00,
2013-07-05 02:21:00,66.9,50.2,29.99,SSW,192,0.0,8.9,55,0.00,,SKC,0.00,VWS V14.01,2013-07-05 07:21:00,
2013-07-05 02:26:00,66.9,50.2,29.99,SW,224,0.0,4.0,55,0.00,,SKC,0.00,VWS V14.01,2013-07-05 07:26:00,
2013-07-05 02:31:00,66.7,50.1,29.99,SW,230,5.6,5.6,55,0.00,,SKC,0.00,VWS V14.01,2013-07-05 07:31:00,
2013-07-05 02:36:00,66.6,50.4,29.99,SW,224,4.8,4.8,56,0.00,,SKC,0.00,VWS V14.01,2013-07-05 07:36:00,
2013-07-05 02:41:00,66.7,50.6,29.99,SSW,210,5.6,6.4,56,0.00,,SKC,0.00,VWS V14.01,2013-07-05 07:41:00,
2013-07-05 02:47:00,66.6,50.4,29.99,SSW,206,7.2,7.2,56,0.00,,SKC,0.00,VWS V14.01,2013-07-05 07:47:00,
2013-07-05 02:52:00,66.4,50.7,29.99,SSE,155,0.0,0.0,57,0.00,,SKC,0.00,VWS V14.01,2013-07-05 07:52:00,
2013-07-05 02:57:00,66.4,50.7,29.99,ESE,110,4.8,6.4,57,0.00,,SKC,0.00,VWS V14.01,2013-07-05 07:57:00,
2013-07-05 03:02:00,66.2,50.5,29.99,SSW,213,0.0,6.4,57,0.00,,SKC,0.00,VWS V14.01,2013-07-05 08:02:00,
2013-07-05 03:08:00,66.2,50.5,29.99,SSW,205,6.4,7.2,57,0.00,,SKC,0.00,VWS V14.01,2013-07-05 08:08:00,
2013-07-05 03:13:00,66.2,51.0,29.99,South,176,5.6,10.5,58,0.00,,SKC,0.00,VWS V14.01,2013-07-05 08:13:00,
2013-07-05 03:18:00,66.0,50.8,29.99,SSW,200,0.0,5.6,58,0.00,,SKC,0.00,VWS V14.01,2013-07-05 08:18:00,
2013-07-05 03:23:00,65.8,51.1,29.99,SW,215,0.0,4.0,59,0.00,,SKC,0.00,VWS V14.01,2013-07-05 08:23:00,
2013-07-05 03:28:00,65.8,51.1,29.99,SSW,213,0.0,7.2,59,0.00,,SKC,0.00,VWS V14.01,2013-07-05 08:28:00,
2013-07-05 03:33:00,65.7,51.0,29.99,SSW,213,0.0,0.0,59,0.00,,SKC,0.00,VWS V14.01,2013-07-05 08:33:00,
2013-07-05 03:38:00,65.5,51.2,29.99,SSW,201,0.0,5.6,60,0.00,,SKC,0.00,VWS V14.01,2013-07-05 08:38:00,
2013-07-05 03:43:00,65.3,51.5,29.99,SSW,203,4.8,4.8,61,0.00,,SKC,0.00,VWS V14.01,2013-07-05 08:43:00,
2013-07-05 03:49:00,65.1,51.8,29.99,SSW,204,0.0,0.0,62,0.00,,SKC,0.00,VWS V14.01,2013-07-05 08:49:00,
2013-07-05 03:54:00,65.1,51.8,29.99,SSW,197,0.0,0.0,62,0.00,,SKC,0.00,VWS V14.01,2013-07-05 08:54:00,
2013-07-05 04:00:00,64.9,51.6,29.99,South,191,4.0,4.0,62,0.00,,SKC,0.00,VWS V14.01,2013-07-05 09:00:00,
2013-07-05 04:06:00,64.8,51.5,29.99,South,175,0.0,6.4,62,0.00,,SKC,0.00,VWS V14.01,2013-07-05 09:06:00,
2013-07-05 04:12:00,64.8,51.9,29.99,SSW,202,0.0,6.4,63,0.00,,SKC,0.00,VWS V14.01,2013-07-05 09:12:00,
2013-07-05 04:17:00,64.8,51.9,29.99,South,182,0.0,6.4,63,0.00,,SKC,0.00,VWS V14.01,2013-07-05 09:17:00,
2013-07-05 04:22:00,64.6,51.7,29.99,SSW,192,5.6,5.6,63,0.00,,SKC,0.00,VWS V14.01,2013-07-05 09:22:00,
2013-07-05 04:27:00,64.4,51.5,29.99,SSW,208,0.0,4.0,63,0.00,,SKC,0.00,VWS V14.01,2013-07-05 09:27:00,
2013-07-05 04:33:00,64.4,51.5,29.99,SSW,201,5.6,6.4,63,0.00,,SKC,0.00,VWS V14.01,2013-07-05 09:33:00,
2013-07-05 04:38:00,64.4,52.0,29.99,South,170,0.0,4.0,64,0.00,,SKC,0.00,VWS V14.01,2013-07-05 09:38:00,
2013-07-05 04:43:00,64.2,51.8,29.99,SSW,201,9.7,9.7,64,0.00,,SKC,0.00,VWS V14.01,2013-07-05 09:43:00,
2013-07-05 04:49:00,64.2,51.8,29.99,SSW,211,0.0,0.0,64,0.00,,SKC,0.00,VWS V14.01,2013-07-05 09:49:00,
2013-07-05 04:55:00,64.0,51.6,29.99,South,177,0.0,0.0,64,0.00,,SKC,0.00,VWS V14.01,2013-07-05 09:55:00,
2013-07-05 05:01:00,63.9,51.9,29.99,SSW,196,0.0,0.0,65,0.00,,SKC,0.00,VWS V14.01,2013-07-05 10:01:00,
2013-07-05 05:06:00,63.7,51.7,29.99,SSE,159,0.0,0.0,65,0.00,,SKC,0.00,VWS V14.01,2013-07-05 10:06:00,
2013-07-05 05:12:00,63.5,52.0,29.99,ESE,122,0.0,4.8,66,0.00,,SKC,0.00,VWS V14.01,2013-07-05 10:12:00,
2013-07-05 05:17:00,63.5,52.0,29.99,SSW,194,0.0,0.0,66,0.00,,SKC,0.00,VWS V14.01,2013-07-05 10:17:00,
2013-07-05 05:22:00,63.3,51.8,29.99,SSW,197,0.0,0.0,66,0.00,,SKC,0.00,VWS V14.01,2013-07-05 10:22:00,
2013-07-05 05:27:00,63.3,51.8,29.99,SW,216,0.0,0.0,66,0.00,,SKC,0.00,VWS V14.01,2013-07-05 10:27:00,
2013-07-05 05:32:00,63.3,52.2,29.99,SW,214,5.6,5.6,67,0.00,,SKC,0.00,VWS V14.01,2013-07-05 10:32:00,
2013-07-05 05:37:00,63.3,52.2,29.99,SW,219,0.0,5.6,67,0.00,,SKC,0.00,VWS V14.01,2013-07-05 10:37:00,
2013-07-05 05:42:00,63.3,52.2,29.99,SSW,193,0.0,0.0,67,0.00,,SKC,0.00,VWS V14.01,2013-07-05 10:42:00,
2013-07-05 05:48:00,63.1,52.0,29.99,SSW,193,0.0,0.0,67,0.00,,SKC,0.00,VWS V14.01,2013-07-05 10:48:00,
2013-07-05 05:53:00,63.1,52.0,29.99,SE,138,0.0,4.0,67,0.00,,SKC,0.00,VWS V14.01,2013-07-05 10:53:00,
2013-07-05 05:58:00,63.1,52.0,29.99,SE,138,0.0,0.0,67,0.00,,SKC,0.00,VWS V14.01,2013-07-05 10:58:00,
2013-07-05 06:03:00,63.1,52.0,29.99,SE,139,0.0,0.0,67,0.00,,SKC,0.00,VWS V14.01,2013-07-05 11:03:00,
2013-07-05 06:08:00,63.1,52.4,29.99,SE,139,0.0,0.0,68,0.00,,SKC,0.00,VWS V14.01,2013-07-05 11:08:00,
2013-07-05 06:14:00,63.1,52.4,29.99,South,187,0.0,4.0,68,0.00,,SKC,0.00,VWS V14.01,2013-07-05 11:14:00,
2013-07-05 06:19:00,63.1,52.4,29.99,South,187,0.0,0.0,68,0.00,,SKC,0.00,VWS V14.01,2013-07-05 11:19:00,
2013-07-05 06:26:00,63.3,52.6,29.99,SSW,213,0.0,0.0,68,0.00,,SKC,0.00,VWS V14.01,2013-07-05 11:26:00,
2013-07-05 06:31:00,63.5,52.4,29.99,SW,216,0.0,4.0,67,0.00,,SKC,0.00,VWS V14.01,2013-07-05 11:31:00,
2013-07-05 06:36:00,63.9,52.7,29.99,SSW,209,0.0,6.4,67,0.00,,SKC,0.00,VWS V14.01,2013-07-05 11:36:00,
2013-07-05 06:41:00,64.0,52.5,29.99,ESE,105,4.8,4.8,66,0.00,,SKC,0.00,VWS V14.01,2013-07-05 11:41:00,
2013-07-05 06:47:00,64.4,52.4,29.99,South,191,0.0,4.8,65,0.00,,SKC,0.00,VWS V14.01,2013-07-05 11:47:00,
2013-07-05 06:52:00,64.6,52.6,29.99,SSE,163,4.8,7.2,65,0.00,,SKC,0.00,VWS V14.01,2013-07-05 11:52:00,
2013-07-05 06:57:00,64.9,52.1,29.99,SSE,151,7.2,8.9,63,0.00,,SKC,0.00,VWS V14.01,2013-07-05 11:57:00,
2013-07-05 07:02:00,64.9,52.1,29.99,SW,223,0.0,0.0,63,0.00,,SKC,0.00,VWS V14.01,2013-07-05 12:02:00,
2013-07-05 07:07:00,65.3,52.4,29.99,SSW,209,4.0,4.8,63,0.00,,SKC,0.00,VWS V14.01,2013-07-05 12:07:00,
2013-07-05 07:13:00,65.7,52.3,29.99,SW,220,4.0,5.6,62,0.00,,SKC,0.00,VWS V14.01,2013-07-05 12:13:00,
2013-07-05 07:18:00,66.0,51.8,29.99,SSW,202,0.0,8.9,60,0.00,,SKC,0.00,VWS V14.01,2013-07-05 12:18:00,
2013-07-05 07:23:00,66.4,50.7,29.99,South,187,4.0,5.6,57,0.00,,SKC,0.00,VWS V14.01,2013-07-05 12:23:00,
2013-07-05 07:28:00,66.7,51.5,29.99,South,189,5.6,7.2,58,0.00,,SKC,0.00,VWS V14.01,2013-07-05 12:28:00,
2013-07-05 07:33:00,67.1,51.4,29.99,SW,220,4.8,7.2,57,0.00,,SKC,0.00,VWS V14.01,2013-07-05 12:33:00,
2013-07-05 07:38:00,67.3,51.5,29.99,SSW,193,4.0,5.6,57,0.00,,SKC,0.00,VWS V14.01,2013-07-05 12:38:00,
2013-07-05 07:43:00,67.8,51.6,29.99,SW,218,5.6,9.7,56,0.00,,SKC,0.00,VWS V14.01,2013-07-05 12:43:00,
2013-07-05 07:48:00,68.2,50.9,29.99,SSW,203,6.4,6.4,54,0.00,,SKC,0.00,VWS V14.01,2013-07-05 12:48:00,
2013-07-05 07:54:00,68.7,50.9,30.02,SW,222,7.2,7.2,53,0.00,,SKC,0.00,VWS V14.01,2013-07-05 12:54:00,
2013-07-05 08:00:00,69.3,50.9,30.02,South,179,5.6,12.9,52,0.00,,SKC,0.00,VWS V14.01,2013-07-05 13:00:00,
2013-07-05 08:06:00,69.6,50.7,30.02,SSW,193,6.4,14.5,51,0.00,,SKC,0.00,VWS V14.01,2013-07-05 13:06:00,
2013-07-05 08:11:00,70.2,51.2,30.02,South,181,0.0,0.0,51,0.00,,SKC,0.00,VWS V14.01,2013-07-05 13:11:00,
2013-07-05 08:16:00,71.6,50.3,30.02,SE,141,8.9,11.3,47,0.00,,SKC,0.00,VWS V14.01,2013-07-05 13:16:00,
2013-07-05 08:23:00,74.5,50.5,30.02,SSW,206,4.0,7.2,43,0.00,,SKC,0.00,VWS V14.01,2013-07-05 13:23:00,
2013-07-05 08:28:00,74.7,49.4,30.02,South,170,7.2,7.2,41,0.00,,SKC,0.00,VWS V14.01,2013-07-05 13:28:00,
2013-07-05 08:33:00,74.7,50.1,30.02,WNW,301,0.0,8.9,42,0.00,,SKC,0.00,VWS V14.01,2013-07-05 13:33:00,
2013-07-05 08:38:00,76.6,50.5,29.99,SSE,150,7.2,10.5,40,0.00,,SKC,0.00,VWS V14.01,2013-07-05 13:38:00,
2013-07-05 08:43:00,79.3,50.1,29.99,South,177,7.2,9.7,36,0.00,,SKC,0.00,VWS V14.01,2013-07-05 13:43:00,
2013-07-05 08:50:00,75.9,49.9,29.99,South,183,6.4,14.5,40,0.00,,SKC,0.00,VWS V14.01,2013-07-05 13:50:00,
2013-07-05 08:55:00,75.4,50.7,29.99,SSE,167,7.2,7.2,42,0.00,,SKC,0.00,VWS V14.01,2013-07-05 13:55:00,
2013-07-05 09:01:00,75.2,49.9,29.99,SSW,196,5.6,8.9,41,0.00,,SKC,0.00,VWS V14.01,2013-07-05 14:01:00,
2013-07-05 09:06:00,75.4,50.1,29.99,SSW,197,6.4,10.5,41,0.00,,SKC,0.00,VWS V14.01,2013-07-05 14:06:00,
2013-07-05 09:11:00,75.6,50.2,29.99,South,182,9.7,11.3,41,0.00,,SKC,0.00,VWS V14.01,2013-07-05 14:11:00,
2013-07-05 09:16:00,75.7,50.4,29.99,SSW,198,6.4,7.2,41,0.00,,SKC,0.00,VWS V14.01,2013-07-05 14:16:00,
2013-07-05 09:21:00,76.1,50.7,29.99,SSE,165,10.5,18.9,41,0.00,,SKC,0.00,VWS V14.01,2013-07-05 14:21:00,
2013-07-05 09:26:00,76.8,50.7,29.99,South,170,10.5,10.5,40,0.00,,SKC,0.00,VWS V14.01,2013-07-05 14:26:00,
2013-07-05 09:31:00,77.5,51.3,29.99,SSW,194,14.5,14.5,40,0.00,,SKC,0.00,VWS V14.01,2013-07-05 14:31:00,
2013-07-05 09:37:00,77.9,50.3,29.99,WSW,237,13.7,14.9,38,0.00,,SKC,0.00,VWS V14.01,2013-07-05 14:37:00,
2013-07-05 09:42:00,77.9,49.6,29.99,SW,216,11.3,11.3,37,0.00,,SKC,0.00,VWS V14.01,2013-07-05 14:42:00,
2013-07-05 09:47:00,78.3,50.6,29.99,South,189,18.9,18.9,38,0.00,,SKC,0.00,VWS V14.01,2013-07-05 14:47:00,
2013-07-05 09:53:00,78.8,48.9,29.99,South,171,7.2,10.5,35,0.00,,SKC,0.00,VWS V14.01,2013-07-05 14:53:00,
2013-07-05 09:59:00,79.5,49.5,29.99,South,171,6.4,11.3,35,0.00,,SKC,0.00,VWS V14.01,2013-07-05 14:59:00,
2013-07-05 10:04:00,79.9,50.6,29.99,South,181,6.4,9.7,36,0.00,,SKC,0.00,VWS V14.01,2013-07-05 15:04:00,
2013-07-05 10:09:00,80.2,50.1,29.99,SE,143,5.6,5.6,35,0.00,,SKC,0.00,VWS V14.01,2013-07-05 15:09:00,
2013-07-05 10:14:00,80.2,49.3,29.99,SSW,204,7.2,7.2,34,0.00,,SKC,0.00,VWS V14.01,2013-07-05 15:14:00,
2013-07-05 10:19:00,81.0,50.0,29.99,NE,55,0.0,0.0,34,0.00,,SKC,0.00,VWS V14.01,2013-07-05 15:19:00,
2013-07-05 10:25:00,81.5,50.5,29.99,West,278,0.0,0.0,34,0.00,,SKC,0.00,VWS V14.01,2013-07-05 15:25:00,
2013-07-05 10:30:00,81.5,49.7,29.99,West,278,0.0,0.0,33,0.00,,SKC,0.00,VWS V14.01,2013-07-05 15:30:00,
2013-07-05 10:35:00,81.7,49.8,29.99,SSW,209,7.2,7.2,33,0.00,,SKC,0.00,VWS V14.01,2013-07-05 15:35:00,
2013-07-05 10:40:00,82.0,50.1,29.99,SSW,209,7.2,7.2,33,0.00,,SKC,0.00,VWS V14.01,2013-07-05 15:40:00,
2013-07-05 10:46:00,82.6,50.6,29.99,SSW,209,7.2,7.2,33,0.00,,SKC,0.00,VWS V14.01,2013-07-05 15:46:00,
2013-07-05 10:51:00,82.0,50.1,29.99,SSW,209,7.2,7.2,33,0.00,,SKC,0.00,VWS V14.01,2013-07-05 15:51:00,
2013-07-05 10:57:00,82.4,49.6,29.99,SSW,209,7.2,7.2,32,0.00,,SKC,0.00,VWS V14.01,2013-07-05 15:57:00,
2013-07-05 11:00:00,82.6,50.6,29.99,SSW,209,7.2,7.2,33,0.00,,SKC,0.00,VWS V14.01,2013-07-05 16:00:00,
2013-07-05 11:06:00,83.5,51.4,29.99,SSW,209,7.2,7.2,33,0.00,,SKC,0.00,VWS V14.01,2013-07-05 16:06:00,
2013-07-05 11:11:00,83.7,50.7,29.99,SSW,209,7.2,7.2,32,0.00,,SKC,0.00,VWS V14.01,2013-07-05 16:11:00,
2013-07-05 11:16:00,83.3,50.4,29.99,SSW,209,7.2,7.2,32,0.00,,SKC,0.00,VWS V14.01,2013-07-05 16:16:00,
2013-07-05 11:21:00,84.2,50.3,29.96,SSW,209,7.2,7.2,31,0.00,,SKC,0.00,VWS V14.01,2013-07-05 16:21:00,
2013-07-05 11:27:00,84.9,51.8,29.96,SSW,209,7.2,7.2,32,0.00,,SKC,0.00,VWS V14.01,2013-07-05 16:27:00,
2013-07-05 11:32:00,84.2,49.4,29.96,SSW,209,7.2,7.2,30,0.00,,SKC,0.00,VWS V14.01,2013-07-05 16:32:00,
2013-07-05 11:37:00,84.6,50.6,29.96,SSW,209,7.2,7.2,31,0.00,,SKC,0.00,VWS V14.01,2013-07-05 16:37:00,
2013-07-05 11:42:00,84.7,50.8,29.96,SSW,209,7.2,7.2,31,0.00,,SKC,0.00,VWS V14.01,2013-07-05 16:42:00,
2013-07-05 11:47:00,84.6,50.6,29.96,SSW,209,7.2,7.2,31,0.00,,SKC,0.00,VWS V14.01,2013-07-05 16:47:00,
2013-07-05 11:52:00,85.8,51.7,29.96,SSW,209,7.2,7.2,31,0.00,,SKC,0.00,VWS V14.01,2013-07-05 16:52:00,
2013-07-05 11:57:00,85.6,51.6,29.96,SSW,209,7.2,7.2,31,0.00,,SKC,0.00,VWS V14.01,2013-07-05 16:57:00,
2013-07-05 12:02:00,86.0,51.0,29.96,SSW,209,7.2,7.2,30,0.00,,SKC,0.00,VWS V14.01,2013-07-05 17:02:00,
2013-07-05 12:07:00,85.8,50.8,29.96,SSW,209,7.2,7.2,30,0.00,,SKC,0.00,VWS V14.01,2013-07-05 17:07:00,
2013-07-05 12:12:00,86.2,51.1,29.96,SSW,209,7.2,7.2,30,0.00,,SKC,0.00,VWS V14.01,2013-07-05 17:12:00,
2013-07-05 12:18:00,86.9,51.8,29.96,SSW,209,7.2,7.2,30,0.00,,SKC,0.00,VWS V14.01,2013-07-05 17:18:00,
2013-07-05 12:24:00,86.7,51.6,29.96,SSW,209,7.2,7.2,30,0.00,,SKC,0.00,VWS V14.01,2013-07-05 17:24:00,
2013-07-05 12:29:00,86.4,50.4,29.96,SSW,209,7.2,7.2,29,0.00,,SKC,0.00,VWS V14.01,2013-07-05 17:29:00,
2013-07-05 12:35:00,86.2,51.1,29.96,SSW,209,7.2,7.2,30,0.00,,SKC,0.00,VWS V14.01,2013-07-05 17:35:00,
2013-07-05 12:40:00,86.7,51.6,29.96,SSW,209,7.2,7.2,30,0.00,,SKC,0.00,VWS V14.01,2013-07-05 17:40:00,
2013-07-05 12:45:00,87.8,51.6,29.96,SSW,209,7.2,7.2,29,0.00,,SKC,0.00,VWS V14.01,2013-07-05 17:45:00,
2013-07-05 12:51:00,88.2,51.9,29.96,SSW,209,7.2,7.2,29,0.00,,SKC,0.00,VWS V14.01,2013-07-05 17:51:00,
2013-07-05 12:57:00,87.6,51.5,29.96,SSW,209,7.2,7.2,29,0.00,,SKC,0.00,VWS V14.01,2013-07-05 17:57:00,
2013-07-05 13:01:00,88.0,51.8,29.96,SSW,196,11.3,11.3,29,0.00,,SKC,0.00,VWS V14.01,2013-07-05 18:01:00,
2013-07-05 13:06:00,87.3,51.2,29.96,SSW,196,11.3,11.3,29,0.00,,SKC,0.00,VWS V14.01,2013-07-05 18:06:00,
2013-07-05 13:11:00,88.0,50.8,29.96,SSW,196,11.3,11.3,28,0.00,,SKC,0.00,VWS V14.01,2013-07-05 18:11:00,
2013-07-05 13:16:00,88.2,51.0,29.96,SSW,196,11.3,11.3,28,0.00,,SKC,0.00,VWS V14.01,2013-07-05 18:16:00,
2013-07-05 13:22:00,87.6,51.5,29.93,SE,142,25.4,25.4,29,0.00,,SKC,0.00,VWS V14.01,2013-07-05 18:22:00,
2013-07-05 13:27:00,88.5,52.2,29.93,SE,142,25.4,25.4,29,0.00,,SKC,0.00,VWS V14.01,2013-07-05 18:27:00,
2013-07-05 13:32:00,88.5,52.2,29.93,SE,142,25.4,25.4,29,0.00,,SKC,0.00,VWS V14.01,2013-07-05 18:32:00,
2013-07-05 13:34:00,88.2,51.0,29.93,SE,142,25.4,25.4,28,0.00,,SKC,0.00,VWS V14.01,2013-07-05 18:34:00,
2013-07-05 13:39:00,88.7,51.4,29.93,SE,142,25.4,25.4,28,0.00,,SKC,0.00,VWS V14.01,2013-07-05 18:39:00,
2013-07-05 13:45:00,88.9,51.6,29.93,SE,142,25.4,25.4,28,0.00,,SKC,0.00,VWS V14.01,2013-07-05 18:45:00,
2013-07-05 13:50:00,88.3,51.1,29.93,SE,142,25.4,25.4,28,0.00,,SKC,0.00,VWS V14.01,2013-07-05 18:50:00,
2013-07-05 13:55:00,88.7,51.4,29.93,SE,142,25.4,25.4,28,0.00,,SKC,0.00,VWS V14.01,2013-07-05 18:55:00,
2013-07-05 14:01:00,89.2,51.9,29.93,SE,142,25.4,25.4,28,0.00,,SKC,0.00,VWS V14.01,2013-07-05 19:01:00,
2013-07-05 14:07:00,89.4,52.1,29.93,SSW,199,10.5,10.5,28,0.00,,SKC,0.00,VWS V14.01,2013-07-05 19:07:00,
2013-07-05 14:12:00,89.2,51.9,29.93,SSW,199,10.5,10.5,28,0.00,,SKC,0.00,VWS V14.01,2013-07-05 19:12:00,
2013-07-05 14:17:00,88.9,51.6,29.93,SSW,199,10.5,10.5,28,0.00,,SKC,0.00,VWS V14.01,2013-07-05 19:17:00,
2013-07-05 14:22:00,89.4,52.1,29.93,SSW,199,10.5,10.5,28,0.00,,SKC,0.00,VWS V14.01,2013-07-05 19:22:00,
2013-07-05 14:27:00,89.4,52.1,29.93,SSW,199,10.5,10.5,28,0.00,,SKC,0.00,VWS V14.01,2013-07-05 19:27:00,
2013-07-05 14:32:00,90.1,51.7,29.93,SSW,199,10.5,10.5,27,0.00,,SKC,0.00,VWS V14.01,2013-07-05 19:32:00,
2013-07-05 14:37:00,90.3,51.8,29.93,SSW,199,10.5,10.5,27,0.00,,SKC,0.00,VWS V14.01,2013-07-05 19:37:00,
2013-07-05 14:42:00,89.6,51.2,29.93,SSW,199,10.5,10.5,27,0.00,,SKC,0.00,VWS V14.01,2013-07-05 19:42:00,
2013-07-05 14:47:00,89.6,51.2,29.93,SSW,199,10.5,10.5,27,0.00,,SKC,0.00,VWS V14.01,2013-07-05 19:47:00,
2013-07-05 14:52:00,89.4,51.1,29.93,SSW,199,10.5,10.5,27,0.00,,SKC,0.00,VWS V14.01,2013-07-05 19:52:00,
2013-07-05 14:57:00,88.7,51.4,29.93,SSW,199,10.5,10.5,28,0.00,,SKC,0.00,VWS V14.01,2013-07-05 19:57:00,
2013-07-05 15:02:00,88.5,51.3,29.93,SSW,199,10.5,10.5,28,0.00,,SKC,0.00,VWS V14.01,2013-07-05 20:02:00,
2013-07-05 15:07:00,89.2,51.9,29.93,SW,224,13.7,13.7,28,0.00,,SKC,0.00,VWS V14.01,2013-07-05 20:07:00,
2013-07-05 15:12:00,90.3,51.8,29.93,SW,224,13.7,13.7,27,0.00,,SKC,0.00,VWS V14.01,2013-07-05 20:12:00,
2013-07-05 15:18:00,89.6,51.2,29.93,SW,224,13.7,13.7,27,0.00,,SKC,0.00,VWS V14.01,2013-07-05 20:18:00,
2013-07-05 15:24:00,88.3,50.2,29.93,SW,224,13.7,13.7,27,0.00,,SKC,0.00,VWS V14.01,2013-07-05 20:24:00,
2013-07-05 15:29:00,88.5,51.3,29.93,SSW,200,27.0,27.0,28,0.00,,SKC,0.00,VWS V14.01,2013-07-05 20:29:00,
2013-07-05 15:34:00,89.8,51.4,29.93,SSW,200,27.0,27.0,27,0.00,,SKC,0.00,VWS V14.01,2013-07-05 20:34:00,
2013-07-05 15:39:00,89.8,51.4,29.93,SSW,200,27.0,27.0,27,0.00,,SKC,0.00,VWS V14.01,2013-07-05 20:39:00,
2013-07-05 15:44:00,88.9,50.6,29.93,SSW,200,27.0,27.0,27,0.00,,SKC,0.00,VWS V14.01,2013-07-05 20:44:00,
2013-07-05 15:49:00,89.2,51.9,29.93,South,176,9.7,9.7,28,0.00,,SKC,0.00,VWS V14.01,2013-07-05 20:49:00,
2013-07-05 15:54:00,89.1,50.8,29.93,South,176,9.7,9.7,27,0.00,,SKC,0.00,VWS V14.01,2013-07-05 20:54:00,
2013-07-05 15:59:00,88.5,51.3,29.93,South,176,9.7,9.7,28,0.00,,SKC,0.00,VWS V14.01,2013-07-05 20:59:00,
2013-07-05 16:04:00,87.8,50.7,29.93,West,260,9.7,9.7,28,0.00,,SKC,0.00,VWS V14.01,2013-07-05 21:04:00,
2013-07-05 16:09:00,86.5,49.6,29.93,West,260,9.7,9.7,28,0.00,,SKC,0.00,VWS V14.01,2013-07-05 21:09:00,
2013-07-05 16:14:00,86.5,49.6,29.93,SE,133,8.9,8.9,28,0.00,,SKC,0.00,VWS V14.01,2013-07-05 21:14:00,
2013-07-05 16:19:00,86.0,49.1,29.93,SE,133,8.9,8.9,28,0.00,,SKC,0.00,VWS V14.01,2013-07-05 21:19:00,
2013-07-05 16:24:00,85.6,49.8,29.93,SE,133,8.9,8.9,29,0.00,,SKC,0.00,VWS V14.01,2013-07-05 21:24:00,
2013-07-05 16:29:00,85.5,49.6,29.93,WSW,254,10.5,10.5,29,0.00,,SKC,0.00,VWS V14.01,2013-07-05 21:29:00,
2013-07-05 16:34:00,85.3,49.5,29.93,WSW,254,10.5,10.5,29,0.00,,SKC,0.00,VWS V14.01,2013-07-05 21:34:00,
2013-07-05 16:39:00,85.1,49.3,29.93,WSW,254,10.5,10.5,29,0.00,,SKC,0.00,VWS V14.01,2013-07-05 21:39:00,
2013-07-05 16:44:00,84.9,49.2,29.93,SSW,208,13.7,13.7,29,0.00,,SKC,0.00,VWS V14.01,2013-07-05 21:44:00,
2013-07-05 16:49:00,84.7,49.0,29.93,SW,222,11.3,11.3,29,0.00,,SKC,0.00,VWS V14.01,2013-07-05 21:49:00,
2013-07-05 16:54:00,84.7,49.0,29.93,SSE,166,14.9,14.9,29,0.00,,SKC,0.00,VWS V14.01,2013-07-05 21:54:00,
2013-07-05 16:59:00,84.2,48.5,29.93,South,182,15.7,15.7,29,0.00,,SKC,0.00,VWS V14.01,2013-07-05 21:59:00,
2013-07-05 17:04:00,84.0,48.4,29.93,West,271,9.7,9.7,29,0.00,,SKC,0.00,VWS V14.01,2013-07-05 22:04:00,
2013-07-05 17:09:00,84.0,48.4,29.93,SE,145,8.9,8.9,29,0.00,,SKC,0.00,VWS V14.01,2013-07-05 22:09:00,
2013-07-05 17:14:00,83.7,49.0,29.93,WSW,256,6.4,6.4,30,0.00,,SKC,0.00,VWS V14.01,2013-07-05 22:14:00,
2013-07-05 17:19:00,83.5,48.8,29.93,SW,218,5.6,5.6,30,0.00,,SKC,0.00,VWS V14.01,2013-07-05 22:19:00,
2013-07-05 17:24:00,83.3,48.7,29.93,SW,218,5.6,5.6,30,0.00,,SKC,0.00,VWS V14.01,2013-07-05 22:24:00,
2013-07-05 17:29:00,83.3,48.7,29.93,SSW,206,5.6,5.6,30,0.00,,SKC,0.00,VWS V14.01,2013-07-05 22:29:00,
2013-07-05 17:35:00,82.9,48.3,29.93,WSW,248,7.2,9.7,30,0.00,,SKC,0.00,VWS V14.01,2013-07-05 22:35:00,
2013-07-05 17:40:00,82.6,48.0,29.93,SE,140,7.2,11.3,30,0.00,,SKC,0.00,VWS V14.01,2013-07-05 22:40:00,
2013-07-05 17:45:00,82.2,48.6,29.93,South,173,5.6,14.9,31,0.00,,SKC,0.00,VWS V14.01,2013-07-05 22:45:00,
2013-07-05 17:50:00,81.9,48.3,29.93,South,183,0.0,0.0,31,0.00,,SKC,0.00,VWS V14.01,2013-07-05 22:50:00,
2013-07-05 17:55:00,81.7,48.1,29.93,SSE,162,8.9,8.9,31,0.00,,SKC,0.00,VWS V14.01,2013-07-05 22:55:00,
2013-07-05 18:00:00,81.5,48.0,29.93,South,187,6.4,6.4,31,0.00,,SKC,0.00,VWS V14.01,2013-07-05 23:00:00,
2013-07-05 18:05:00,81.5,48.0,29.93,South,187,7.2,7.2,31,0.00,,SKC,0.00,VWS V14.01,2013-07-05 23:05:00,
2013-07-05 18:10:00,81.3,47.8,29.93,SW,218,8.9,8.9,31,0.00,,SKC,0.00,VWS V14.01,2013-07-05 23:10:00,
2013-07-05 18:15:00,81.3,47.8,29.93,SW,218,8.9,8.9,31,0.00,,SKC,0.00,VWS V14.01,2013-07-05 23:15:00,
2013-07-05 18:20:00,81.1,47.7,29.93,SW,218,8.9,8.9,31,0.00,,SKC,0.00,VWS V14.01,2013-07-05 23:20:00,
2013-07-05 18:25:00,81.1,48.5,29.93,SSW,192,6.4,6.4,32,0.00,,SKC,0.00,VWS V14.01,2013-07-05 23:25:00,
2013-07-05 18:30:00,81.0,48.4,29.93,WSW,242,4.8,4.8,32,0.00,,SKC,0.00,VWS V14.01,2013-07-05 23:30:00,
2013-07-05 18:35:00,80.8,48.2,29.93,South,176,8.9,8.9,32,0.00,,SKC,0.00,VWS V14.01,2013-07-05 23:35:00,
2013-07-05 18:40:00,80.8,48.2,29.93,South,187,9.7,9.7,32,0.00,,SKC,0.00,VWS V14.01,2013-07-05 23:40:00,
2013-07-05 18:45:00,80.8,48.2,29.93,SSW,204,0.0,0.0,32,0.00,,SKC,0.00,VWS V14.01,2013-07-05 23:45:00,
2013-07-05 18:50:00,80.6,48.0,29.93,SSW,204,0.0,0.0,32,0.00,,SKC,0.00,VWS V14.01,2013-07-05 23:50:00,
2013-07-05 18:55:00,80.6,48.0,29.93,West,271,0.0,0.0,32,0.00,,SKC,0.00,VWS V14.01,2013-07-05 23:55:00,
2013-07-05 19:00:00,80.4,48.7,29.93,SSE,147,0.0,0.0,33,0.00,,SKC,0.00,VWS V14.01,2013-07-06 00:00:00,
2013-07-05 19:05:00,80.6,48.9,29.93,WSW,237,0.0,4.0,33,0.00,,SKC,0.00,VWS V14.01,2013-07-06 00:05:00,
2013-07-05 19:10:00,80.8,49.0,29.93,South,182,0.0,0.0,33,0.00,,SKC,0.00,VWS V14.01,2013-07-06 00:10:00,
2013-07-05 19:15:00,81.0,49.2,29.93,South,172,10.5,10.5,33,0.00,,SKC,0.00,VWS V14.01,2013-07-06 00:15:00,
2013-07-05 19:20:00,81.3,49.5,29.93,SSW,198,5.6,5.6,33,0.00,,SKC,0.00,VWS V14.01,2013-07-06 00:20:00,
2013-07-05 19:25:00,81.5,49.7,29.93,SSE,157,7.2,7.2,33,0.00,,SKC,0.00,VWS V14.01,2013-07-06 00:25:00,
2013-07-05 19:30:00,81.5,50.5,29.93,SSE,162,0.0,5.6,34,0.00,,SKC,0.00,VWS V14.01,2013-07-06 00:30:00,
2013-07-05 19:35:00,81.3,49.5,29.93,South,173,4.8,4.8,33,0.00,,SKC,0.00,VWS V14.01,2013-07-06 00:35:00,
2013-07-05 19:40:00,81.1,50.1,29.93,SSE,168,8.9,8.9,34,0.00,,SKC,0.00,VWS V14.01,2013-07-06 00:40:00,
2013-07-05 19:45:00,80.8,49.8,29.93,South,182,4.0,4.0,34,0.00,,SKC,0.00,VWS V14.01,2013-07-06 00:45:00,
2013-07-05 19:50:00,80.6,49.7,29.93,South,185,0.0,0.0,34,0.00,,SKC,0.00,VWS V14.01,2013-07-06 00:50:00,
2013-07-05 19:55:00,80.2,49.3,29.93,SSE,160,11.3,11.3,34,0.00,,SKC,0.00,VWS V14.01,2013-07-06 00:55:00,
2013-07-05 20:00:00,80.1,49.2,29.93,SSE,161,6.4,6.4,34,0.00,,SKC,0.00,VWS V14.01,2013-07-06 01:00:00,
2013-07-05 20:05:00,80.1,49.2,29.93,South,170,10.5,10.5,34,0.00,,SKC,0.00,VWS V14.01,2013-07-06 01:05:00,
2013-07-05 20:10:00,79.9,49.8,29.93,South,173,4.0,4.0,35,0.00,,SKC,0.00,VWS V14.01,2013-07-06 01:10:00,
2013-07-05 20:15:00,79.5,49.5,29.93,SSE,166,9.7,11.3,35,0.00,,SKC,0.00,VWS V14.01,2013-07-06 01:15:00,
2013-07-05 20:20:00,79.3,50.1,29.93,South,191,4.8,5.6,36,0.00,,SKC,0.00,VWS V14.01,2013-07-06 01:20:00,
2013-07-05 20:25:00,79.2,49.9,29.93,SW,218,0.0,0.0,36,0.00,,SKC,0.00,VWS V14.01,2013-07-06 01:25:00,
2013-07-05 20:30:00,79.0,49.8,29.93,South,191,8.9,8.9,36,0.00,,SKC,0.00,VWS V14.01,2013-07-06 01:30:00,
2013-07-05 20:34:00,78.8,49.6,29.93,SSW,194,5.6,12.9,36,0.00,,SKC,0.00,VWS V14.01,2013-07-06 01:34:00,
2013-07-05 20:40:00,78.8,50.4,29.93,SSE,160,7.2,14.9,37,0.00,,SKC,0.00,VWS V14.01,2013-07-06 01:40:00,
2013-07-05 20:45:00,78.4,50.8,29.93,South,174,0.0,4.0,38,0.00,,SKC,0.00,VWS V14.01,2013-07-06 01:45:00,
2013-07-05 20:50:00,78.1,50.4,29.93,South,180,0.0,10.5,38,0.00,,SKC,0.00,VWS V14.01,2013-07-06 01:50:00,
2013-07-05 20:55:00,77.9,51.0,29.93,SSW,199,8.9,11.3,39,0.00,,SKC,0.00,VWS V14.01,2013-07-06 01:55:00,
2013-07-05 21:00:00,77.7,50.8,29.93,South,185,7.2,7.2,39,0.00,,SKC,0.00,VWS V14.01,2013-07-06 02:00:00,
2013-07-05 21:03:00,77.9,51.0,29.93,NNE,22,4.8,7.2,39,0.00,,SKC,0.00,VWS V14.01,2013-07-06 02:03:00,
2013-07-05 21:08:00,77.5,50.7,29.93,South,187,4.8,4.8,39,0.00,,SKC,0.00,VWS V14.01,2013-07-06 02:08:00,
2013-07-05 21:13:00,77.4,51.2,29.93,South,184,7.2,7.2,40,0.00,,SKC,0.00,VWS V14.01,2013-07-06 02:13:00,
2013-07-05 21:18:00,77.0,50.9,29.93,South,170,6.4,6.4,40,0.00,,SKC,0.00,VWS V14.01,2013-07-06 02:18:00,
2013-07-05 21:23:00,76.8,51.4,29.93,South,185,8.1,8.1,41,0.00,,SKC,0.00,VWS V14.01,2013-07-06 02:23:00,
2013-07-05 21:29:00,76.6,51.2,29.93,South,191,0.0,8.9,41,0.00,,SKC,0.00,VWS V14.01,2013-07-06 02:29:00,
2013-07-05 21:35:00,76.5,51.0,29.93,South,191,0.0,4.8,41,0.00,,SKC,0.00,VWS V14.01,2013-07-06 02:35:00,
2013-07-05 21:40:00,76.3,50.9,29.93,SSE,160,0.0,0.0,41,0.00,,SKC,0.00,VWS V14.01,2013-07-06 02:40:00,
2013-07-05 21:45:00,75.9,51.2,29.93,South,180,0.0,0.0,42,0.00,,SKC,0.00,VWS V14.01,2013-07-06 02:45:00,
2013-07-05 21:50:00,75.7,51.0,29.93,SW,227,0.0,5.6,42,0.00,,SKC,0.00,VWS V14.01,2013-07-06 02:50:00,
2013-07-05 21:55:00,75.9,51.2,29.93,South,187,4.8,4.8,42,0.00,,SKC,0.00,VWS V14.01,2013-07-06 02:55:00,
2013-07-05 22:00:00,75.7,51.0,29.93,South,191,4.8,5.6,42,0.00,,SKC,0.00,VWS V14.01,2013-07-06 03:00:00,
2013-07-05 22:05:00,75.6,50.9,29.93,SSW,203,6.4,7.2,42,0.00,,SKC,0.00,VWS V14.01,2013-07-06 03:05:00,
2013-07-05 22:10:00,75.4,50.7,29.93,South,187,4.8,5.6,42,0.00,,SKC,0.00,VWS V14.01,2013-07-06 03:10:00,
2013-07-05 22:11:00,75.4,50.7,29.93,South,187,4.8,5.6,42,0.00,,SKC,0.00,VWS V14.01,2013-07-06 03:11:00,
2013-07-05 22:16:00,75.2,50.6,29.93,ESE,113,0.0,4.0,42,0.00,,SKC,0.00,VWS V14.01,2013-07-06 03:16:00,
2013-07-05 22:21:00,75.0,51.0,29.93,SW,216,0.0,0.0,43,0.00,,SKC,0.00,VWS V14.01,2013-07-06 03:21:00,
2013-07-05 22:26:00,74.8,50.9,29.93,South,175,0.0,0.0,43,0.00,,SKC,0.00,VWS V14.01,2013-07-06 03:26:00,
2013-07-05 22:31:00,74.5,51.2,29.93,South,183,5.6,5.6,44,0.00,,SKC,0.00,VWS V14.01,2013-07-06 03:31:00,
2013-07-05 22:36:00,74.1,51.4,29.93,South,181,10.5,10.5,45,0.00,,SKC,0.00,VWS V14.01,2013-07-06 03:36:00,
2013-07-05 22:40:00,74.1,50.8,29.93,SE,127,7.2,7.2,44,0.00,,SKC,0.00,VWS V14.01,2013-07-06 03:40:00,
2013-07-05 22:46:00,73.9,51.3,29.93,SSW,192,7.2,7.2,45,0.00,,SKC,0.00,VWS V14.01,2013-07-06 03:46:00,
2013-07-05 22:51:00,73.8,51.1,29.93,SW,229,0.0,4.0,45,0.00,,SKC,0.00,VWS V14.01,2013-07-06 03:51:00,
2013-07-05 22:56:00,73.8,51.1,29.93,SSE,164,6.4,8.9,45,0.00,,SKC,0.00,VWS V14.01,2013-07-06 03:56:00,
2013-07-05 23:01:00,73.8,51.1,29.93,South,178,0.0,8.1,45,0.00,,SKC,0.00,VWS V14.01,2013-07-06 04:01:00,
2013-07-05 23:02:00,73.8,51.1,29.93,WSW,252,7.2,7.2,45,0.00,,SKC,0.00,VWS V14.01,2013-07-06 04:02:00,
2013-07-05 23:03:00,73.6,51.0,29.93,ESE,112,4.8,7.2,45,0.00,,SKC,0.00,VWS V14.01,2013-07-06 04:03:00,
2013-07-05 23:06:00,73.8,51.1,29.93,SSE,150,0.0,4.8,45,0.00,,SKC,0.00,VWS V14.01,2013-07-06 04:06:00,
2013-07-05 23:11:00,73.4,50.8,29.93,South,186,0.0,5.6,45,0.00,,SKC,0.00,VWS V14.01,2013-07-06 04:11:00,
2013-07-05 23:12:00,73.4,50.8,29.93,SW,220,4.0,6.4,45,0.00,,SKC,0.00,VWS V14.01,2013-07-06 04:12:00,
2013-07-05 23:17:00,73.2,51.2,29.93,SSE,152,0.0,0.0,46,0.00,,SKC,0.00,VWS V14.01,2013-07-06 04:17:00,
2013-07-05 23:23:00,73.0,51.6,29.93,SSE,153,6.4,6.4,47,0.00,,SKC,0.00,VWS V14.01,2013-07-06 04:23:00,
2013-07-05 23:29:00,72.9,51.5,29.93,SSW,208,7.2,7.2,47,0.00,,SKC,0.00,VWS V14.01,2013-07-06 04:29:00,
2013-07-05 23:34:00,72.9,51.5,29.93,SW,218,0.0,0.0,47,0.00,,SKC,0.00,VWS V14.01,2013-07-06 04:34:00,
2013-07-05 23:39:00,72.7,51.9,29.96,South,178,0.0,0.0,48,0.00,,SKC,0.00,VWS V14.01,2013-07-06 04:39:00,
2013-07-05 23:44:00,72.5,51.7,29.96,SSE,168,0.0,5.6,48,0.00,,SKC,0.00,VWS V14.01,2013-07-06 04:44:00,
2013-07-05 23:49:00,72.5,52.3,29.96,SSW,206,5.6,7.2,49,0.00,,SKC,0.00,VWS V14.01,2013-07-06 04:49:00,
2013-07-05 23:54:00,72.3,52.1,29.96,SE,146,4.0,4.0,49,0.00,,SKC,0.00,VWS V14.01,2013-07-06 04:54:00,